Bellaire, MI

2:24 AM EDT on August 29, 2016 (GMT -0400)
Antrim County

Weather History for KACB - February, 2013

Change the Weather History Date:

Monday, February 25, 2013

  Actual Average (KTVC) Record (KTVC)
Temperature  
Mean Temperature 32 °F 24 °F  
Max Temperature 36 °F 33 °F 52 °F (1976)
Min Temperature 29 °F 16 °F -22 °F (1963)
Degree Days  
Heating Degree Days 32 40  
Month to date heating degree days 1065  
Since 1 July heating degree days 5221  
Moisture  
Dew Point 25 °F    
Average Humidity 76    
Maximum Humidity 93    
Minimum Humidity 56    
Precipitation  
Precipitation 0.00 in 0.05 in 0.60 in (1930)
Month to date precipitation 1.34  
Year to date precipitation 4.16  
Sea Level Pressure  
Sea Level Pressure 30.14 in    
Wind  
Wind Speed 2 mph (SSW)    
Max Wind Speed 8 mph    
Max Gust Speed -    
Visibility 10 miles    
Events      
T = Trace of Precipitation, MM = Missing Value Source: NWS Daily Summary

Daily Weather History Graph

Daily Weather History Graph

Search for Another Location

Airport or City:

Trip Planner

Search our weather history database for the weather conditions in past years. The results will help you decide how hot, cold, wet, or windy it might be!

Date:

Astronomy

Feb. 25, 2013 Rise Set
Actual Time 7:25 AM EST 6:23 PM EST
Civil Twilight 6:55 AM EST 6:52 PM EST
Nautical Twilight 6:21 AM EST 7:26 PM EST
Astronomical Twilight 5:47 AM EST 8:00 PM EST
Moon 6:38 PM EST (2/25) 6:53 AM EST (2/25)
Length of Visible Light 11h 57m
Length of Day
10h 58m
Full, 100% of the Moon is Illuminated
Feb 25
Full
Feb 25
Full
Mar 4
Last Quarter
Mar 11
New
Mar 19
First Quarter

Hourly Weather History & Observations

Time (EST) Temp. Windchill Dew Point Humidity Pressure Visibility Wind Dir Wind Speed Gust Speed Precip Events Conditions
12:14 AM 30.6 °F - 28.4 °F 92% 30.12 in 10.0 mi Calm Calm - N/A   Overcast
12:35 AM 30.4 °F - 28.2 °F 92% 30.12 in 10.0 mi Calm Calm - N/A   Overcast
12:54 AM 30.6 °F - 28.4 °F 92% 30.12 in 10.0 mi Calm Calm - N/A   Overcast
1:14 AM 30.6 °F - 28.4 °F 92% 30.12 in 10.0 mi Calm Calm - N/A   Overcast
1:35 AM 30.2 °F - 28.4 °F 93% 30.13 in 10.0 mi Calm Calm - N/A   Overcast
1:54 AM 30.6 °F - 28.4 °F 92% 30.14 in 7.0 mi Calm Calm - N/A   Overcast
2:14 AM 30.9 °F 27.5 °F 28.4 °F 90% 30.14 in 5.0 mi South 3.5 mph - N/A   Overcast
2:35 AM 30.9 °F - 28.4 °F 90% 30.14 in 10.0 mi Calm Calm - N/A   Overcast
2:54 AM 30.9 °F 27.5 °F 28.2 °F 90% 30.14 in 10.0 mi SSW 3.5 mph - N/A   Overcast
3:15 AM 31.1 °F - 28.0 °F 88% 30.14 in 10.0 mi Calm Calm - N/A   Overcast
3:35 AM 31.1 °F - 27.5 °F 87% 30.14 in 10.0 mi Calm Calm - N/A   Overcast
3:54 AM 30.9 °F 27.5 °F 27.3 °F 86% 30.14 in 10.0 mi SSW 3.5 mph - N/A   Overcast
4:15 AM 30.9 °F 27.5 °F 27.0 °F 85% 30.14 in 10.0 mi SSW 3.5 mph - N/A   Overcast
4:34 AM 30.9 °F - 26.6 °F 84% 30.14 in 10.0 mi Calm Calm - N/A   Overcast
4:54 AM 30.9 °F 27.5 °F 26.6 °F 84% 30.14 in 10.0 mi South 3.5 mph - N/A   Overcast
5:15 AM 30.6 °F 27.1 °F 26.4 °F 85% 30.14 in 10.0 mi SSW 3.5 mph - N/A   Overcast
5:34 AM 30.6 °F - 26.4 °F 85% 30.14 in 10.0 mi Calm Calm - N/A   Overcast
5:55 AM 30.6 °F 27.1 °F 26.2 °F 84% 30.15 in 10.0 mi South 3.5 mph - N/A   Overcast
6:15 AM 30.0 °F 26.5 °F 25.9 °F 85% 30.15 in 10.0 mi South 3.5 mph - N/A   Overcast
6:34 AM 29.8 °F - 25.9 °F 85% 30.16 in 10.0 mi Calm Calm - N/A   Overcast
6:55 AM 30.0 °F 26.5 °F 25.7 °F 84% 30.15 in 10.0 mi SSW 3.5 mph - N/A   Overcast
7:15 AM 30.0 °F 25.2 °F 25.5 °F 83% 30.15 in 10.0 mi South 4.6 mph - N/A   Overcast
7:34 AM 29.8 °F 26.3 °F 25.2 °F 83% 30.16 in 10.0 mi SSW 3.5 mph - N/A   Overcast
7:55 AM 29.5 °F - 25.3 °F 85% 30.16 in 10.0 mi Calm Calm - N/A   Overcast
8:15 AM 29.8 °F - 25.3 °F 83% 30.17 in 10.0 mi Calm Calm - N/A   Overcast
8:34 AM 30.2 °F 26.7 °F 25.5 °F 83% 30.18 in 10.0 mi SSW 3.5 mph - N/A   Overcast
8:55 AM 30.7 °F 24.9 °F 25.0 °F 79% 30.18 in 10.0 mi South 5.8 mph - N/A   Overcast
9:15 AM 31.1 °F 26.4 °F 24.8 °F 77% 30.18 in 10.0 mi SSW 4.6 mph - N/A   Overcast
9:34 AM 31.8 °F 27.3 °F 24.6 °F 75% 30.18 in 10.0 mi South 4.6 mph - N/A   Overcast
9:55 AM 32.0 °F 27.5 °F 24.1 °F 73% 30.18 in 10.0 mi SSW 4.6 mph - N/A   Overcast
10:15 AM 32.0 °F 28.7 °F 24.3 °F 73% 30.17 in 10.0 mi South 3.5 mph - N/A   Overcast
10:35 AM 33.1 °F 30.0 °F 23.7 °F 68% 30.17 in 10.0 mi South 3.5 mph - N/A   Scattered Clouds
10:55 AM 34.2 °F - 23.2 °F 64% 30.16 in 10.0 mi Calm Calm - N/A   Mostly Cloudy
11:15 AM 33.8 °F - 21.2 °F 60% 30.16 in 10.0 mi Calm Calm - N/A   Scattered Clouds
11:35 AM 34.3 °F - 21.4 °F 59% 30.17 in 10.0 mi Calm Calm - N/A   Scattered Clouds
11:54 AM 34.5 °F 27.9 °F 21.2 °F 58% 30.17 in 10.0 mi South 8.1 mph - N/A   Mostly Cloudy
12:15 PM 35.1 °F 30.1 °F 21.6 °F 58% 30.17 in 10.0 mi SSW 5.8 mph - N/A   Overcast
12:35 PM 34.7 °F 30.6 °F 22.1 °F 60% 30.17 in 10.0 mi SSW 4.6 mph - N/A   Overcast
12:54 PM 34.7 °F 30.6 °F 22.8 °F 62% 30.16 in 10.0 mi WSW 4.6 mph - N/A   Overcast
1:15 PM 34.3 °F 31.4 °F 23.7 °F 65% 30.15 in 10.0 mi WSW 3.5 mph - N/A   Overcast
1:35 PM 34.7 °F 30.6 °F 23.4 °F 63% 30.15 in 10.0 mi SSW 4.6 mph - N/A   Overcast
1:54 PM 35.4 °F 30.5 °F 23.2 °F 61% 30.15 in 10.0 mi SW 5.8 mph - N/A   Overcast
2:15 PM 35.8 °F 30.9 °F 23.0 °F 60% 30.15 in 10.0 mi SSW 5.8 mph - N/A   Overcast
2:35 PM 36.5 °F 31.8 °F 22.1 °F 56% 30.15 in 10.0 mi SSW 5.8 mph - N/A   Overcast
2:55 PM 35.8 °F 33.0 °F 22.6 °F 59% 30.14 in 10.0 mi West 3.5 mph - N/A   Overcast
3:15 PM 35.6 °F 31.7 °F 22.3 °F 58% 30.14 in 10.0 mi WSW 4.6 mph - N/A   Overcast
3:35 PM 35.6 °F 31.7 °F 22.5 °F 59% 30.14 in 10.0 mi SW 4.6 mph - N/A   Overcast
3:55 PM 35.6 °F 32.8 °F 22.6 °F 59% 30.14 in 10.0 mi South 3.5 mph - N/A   Overcast
4:15 PM 35.6 °F 32.8 °F 22.8 °F 60% 30.14 in 10.0 mi SSW 3.5 mph - N/A   Overcast
4:34 PM 35.8 °F - 22.5 °F 58% 30.13 in 10.0 mi Calm Calm - N/A   Overcast
4:55 PM 35.6 °F 32.8 °F 22.8 °F 60% 30.13 in 10.0 mi South 3.5 mph - N/A   Overcast
5:15 PM 35.8 °F - 22.3 °F 58% 30.13 in 10.0 mi Calm Calm - N/A   Overcast
5:34 PM 35.2 °F - 23.0 °F 61% 30.13 in 10.0 mi Calm Calm - N/A   Overcast
5:55 PM 35.8 °F - 23.0 °F 60% 30.13 in 10.0 mi Calm Calm - N/A   Overcast
9:05 PM 32.0 °F - 26.6 °F 80% 30.13 in 10.0 mi Calm Calm - N/A   Overcast
9:15 PM 31.6 °F - 26.6 °F 82% 30.13 in 10.0 mi Calm Calm - N/A   Overcast
9:35 PM 31.8 °F - 26.6 °F 81% 30.13 in 10.0 mi Calm Calm - N/A   Overcast
9:55 PM 32.0 °F - 26.4 °F 80% 30.13 in 10.0 mi Calm Calm - N/A   Overcast
10:15 PM 32.0 °F - 27.1 °F 82% 30.12 in 10.0 mi Calm Calm - N/A   Overcast
10:35 PM 31.8 °F - 26.8 °F 82% 30.12 in 10.0 mi Calm Calm - N/A   Overcast
10:54 PM 31.1 °F - 26.6 °F 83% 30.10 in 10.0 mi Calm Calm - N/A   Overcast
11:14 PM 30.7 °F - 26.6 °F 85% 30.10 in 10.0 mi Calm Calm - N/A   Overcast
11:34 PM 30.0 °F - 26.4 °F 86% 30.12 in 10.0 mi Calm Calm - N/A   Overcast
11:54 PM 30.2 °F - 27.0 °F 88% 30.13 in 10.0 mi Calm Calm - N/A   Overcast